QPF
0.00 0.00 0.00 0.00 0.00 0.00 0.00 0.00 0.00 0.00 0.00 0.00 0.00 0.00 0.00 0.00 0.00 0.00 0.00 0.00 0.00 0.00 0.00 0.00 0.00 0.00 0.00 0.00 0.00 0.00 0.00 0.00 0.00 0.00 0.00 0.00 0.00 0.00 0.00 0.00 0.00 0.00 0.00
0.00 0.00 0.00 0.00 0.00 0.00 0.00 0.00 0.00 0.00 0.00 0.00 0.00 0.00 0.00 0.00 0.00 0.00 0.00 0.00 0.00 0.00 0.00 0.00 0.00 0.00 0.00 0.00 0.00 0.00 0.00 0.00 0.00 0.00 0.00 0.00 0.00 0.00 0.00 0.00 0.00 0.00 0.00
0.00 0.00 0.00 0.00 0.00 0.00 0.00 0.00 0.00 0.00 0.00 0.00 0.00 0.00 0.00 0.00 0.00 0.00 0.00 0.00 0.00 0.00 0.00 0.00 0.00 0.00 0.00 0.00 0.00 0.00 0.00 0.00 0.00 0.01 0.00 0.00 0.00 0.00 0.00 0.00 0.00 0.00 0.00
0.00 0.00 0.00 0.00 0.00 0.00 0.00 0.00 0.00 0.00 0.00 0.00 0.00 0.00 0.00 0.00 0.00 0.00 0.00 0.00 0.00 0.00 0.00 0.00 0.00 0.00 0.00 0.00 0.00 0.00 0.00 0.00 0.01 0.01 0.01 0.01 0.01 0.00 0.00 0.00 0.00 0.00 0.00
0.00 0.00 0.00 0.00 0.00 0.00 0.00 0.00 0.00 0.00 0.00 0.00 0.00 0.00 0.00 0.00 0.00 0.00 0.00 0.00 0.00 0.00 0.00 0.00 0.00 0.00 0.00 0.00 0.00 0.01 0.01 0.01 0.01 0.02 0.02 0.01 0.01 0.01 0.01 0.01 0.01 0.01 0.00
0.00 0.00 0.00 0.00 0.00 0.00 0.00 0.00 0.00 0.00 0.00 0.00 0.00 0.00 0.00 0.00 0.00 0.00 0.00 0.00 0.00 0.00 0.00 0.00 0.00 0.00 0.00 0.00 0.01 0.01 0.01 0.02 0.02 0.02 0.03 0.03 0.02 0.01 0.01 0.01 0.02 0.02 0.02
0.00 0.00 0.00 0.00 0.00 0.00 0.00 0.00 0.00 0.00 0.00 0.00 0.00 0.00 0.00 0.00 0.00 0.00 0.00 0.00 0.00 0.00 0.00 0.00 0.00 0.00 0.00 0.00 0.00 0.00 0.00 0.01 0.02 0.03 0.04 0.02 0.01 0.01 0.01 0.02 0.03 0.03 0.03
0.00 0.00 0.00 0.00 0.00 0.00 0.00 0.00 0.00 0.00 0.00 0.00 0.00 0.00 0.00 0.00 0.00 0.00 0.00 0.00 0.00 0.00 0.00 0.00 0.00 0.00 0.00 0.00 0.00 0.00 0.00 0.01 0.01 0.01 0.01 0.01 0.01 0.01 0.03 0.06 0.08 0.08 0.05
0.00 0.00 0.00 0.00 0.00 0.00 0.00 0.00 0.00 0.00 0.00 0.00 0.00 0.00 0.00 0.00 0.00 0.00 0.00 0.00 0.00 0.00 0.00 0.00 0.00 0.00 0.00 0.01 0.02 0.01 0.01 0.01 0.00 0.01 0.02 0.03 0.04 0.04 0.05 0.06 0.07 0.08 0.06
0.00 0.00 0.00 0.00 0.00 0.00 0.00 0.00 0.00 0.00 0.00 0.00 0.00 0.00 0.00 0.00 0.00 0.00 0.00 0.00 0.00 0.00 0.00 0.00 0.00 0.01 0.01 0.02 0.02 0.02 0.03 0.02 0.01 0.01 0.01 0.01 0.01 0.01 0.01 0.02 0.04 0.07 0.06
0.00 0.00 0.00 0.00 0.00 0.00 0.00 0.00 0.00 0.00 0.00 0.00 0.00 0.00 0.00 0.00 0.00 0.00 0.00 0.00 0.00 0.01 0.01 0.00 0.00 0.01 0.01 0.02 0.03 0.03 0.04 0.04 0.04 0.04 0.03 0.02 0.01 0.00 0.00 0.01 0.01 0.03 0.05
0.00 0.00 0.00 0.00 0.00 0.00 0.00 0.00 0.00 0.00 0.00 0.00 0.00 0.00 0.00 0.00 0.00 0.00 0.00 0.01 0.01 0.01 0.01 0.00 0.00 0.01 0.03 0.04 0.04 0.03 0.04 0.04 0.03 0.02 0.01 0.01 0.01 0.00 0.00 0.00 0.00 0.01 0.02
0.00 0.00 0.00 0.00 0.00 0.00 0.00 0.00 0.00 0.00 0.00 0.00 0.00 0.00 0.00 0.00 0.00 0.00 0.00 0.01 0.01 0.01 0.01 0.01 0.02 0.03 0.03 0.02 0.01 0.02 0.02 0.01 0.01 0.01 0.01 0.00 0.00 0.00 0.00 0.00 0.00 0.00 0.01
0.00 0.00 0.00 0.00 0.00 0.00 0.00 0.00 0.00 0.00 0.00 0.00 0.00 0.00 0.00 0.00 0.00 0.00 0.00 0.01 0.01 0.01 0.01 0.02 0.02 0.02 0.02 0.01 0.01 0.01 0.00 0.00 0.01 0.01 0.01 0.00 0.00 0.00 0.00 0.01 0.01 0.01 0.01
0.00 0.00 0.00 0.00 0.00 0.00 0.00 0.00 0.00 0.00 0.00 0.00 0.00 0.00 0.00 0.00 0.00 0.01 0.02 0.02 0.02 0.03 0.04 0.04 0.03 0.02 0.01 0.01 0.00 0.00 0.00 0.00 0.01 0.01 0.01 0.01 0.01 0.01 0.00 0.00 0.01 0.01 0.01
0.00 0.00 0.00 0.00 0.00 0.00 0.00 0.00 0.00 0.00 0.00 0.00 0.00 0.00 0.00 0.00 0.01 0.01 0.01 0.02 0.02 0.03 0.04 0.04 0.02 0.01 0.01 0.01 0.01 0.00 0.00 0.00 0.01 0.01 0.01 0.01 0.01 0.01 0.00 0.00 0.00 0.01 0.01
0.00 0.00 0.00 0.00 0.00 0.00 0.00 0.00 0.00 0.00 0.00 0.00 0.00 0.00 0.00 0.01 0.01 0.01 0.01 0.02 0.02 0.02 0.03 0.02 0.01 0.01 0.01 0.00 0.01 0.01 0.01 0.00 0.01 0.01 0.01 0.01 0.01 0.01 0.01 0.01 0.00 0.01 0.01
0.00 0.00 0.00 0.00 0.00 0.00 0.00 0.00 0.00 0.00 0.00 0.00 0.00 0.00 0.00 0.01 0.01 0.01 0.01 0.01 0.01 0.00 0.00 0.00 0.00 0.01 0.01 0.01 0.01 0.01 0.01 0.01 0.01 0.01 0.01 0.01 0.01 0.01 0.01 0.01 0.01 0.01 0.01
0.00 0.00 0.00 0.00 0.00 0.00 0.00 0.00 0.00 0.00 0.00 0.00 0.00 0.00 0.00 0.00 0.00 0.01 0.01 0.01 0.00 0.00 0.01 0.01 0.01 0.01 0.01 0.01 0.01 0.01 0.01 0.01 0.01 0.01 0.01 0.01 0.01 0.02 0.01 0.01 0.01 0.01 0.01
0.00 0.00 0.00 0.00 0.00 0.00 0.00 0.00 0.00 0.00 0.00 0.00 0.00 0.00 0.00 0.01 0.01 0.01 0.01 0.01 0.01 0.01 0.01 0.01 0.01 0.01 0.01 0.01 0.01 0.01 0.01 0.01 0.01 0.01 0.01 0.01 0.01 0.02 0.01 0.01 0.01 0.01 0.00
0.00 0.00 0.00 0.00 0.00 0.00 0.00 0.00 0.00 0.01 0.01 0.01 0.00 0.00 0.01 0.02 0.02 0.01 0.01 0.01 0.01 0.01 0.01 0.01 0.01 0.01 0.01 0.01 0.01 0.02 0.02 0.01 0.01 0.01 0.01 0.01 0.01 0.01 0.01 0.01 0.01 0.01 0.01
0.00 0.00 0.00 0.00 0.00 0.00 0.00 0.00 0.01 0.01 0.00 0.00 0.00 0.00 0.01 0.01 0.01 0.00 0.01 0.01 0.01 0.01 0.01 0.01 0.01 0.01 0.01 0.01 0.02 0.03 0.02 0.02 0.01 0.01 0.02 0.01 0.01 0.01 0.01 0.01 0.01 0.01 0.01
0.00 0.00 0.00 0.00 0.00 0.00 0.00 0.00 0.00 0.00 0.01 0.00 0.00 0.00 0.00 0.01 0.01 0.01 0.01 0.01 0.01 0.01 0.00 0.01 0.01 0.01 0.00 0.01 0.02 0.03 0.03 0.02 0.01 0.02 0.02 0.02 0.01 0.01 0.01 0.01 0.01 0.01 0.01
0.00 0.00 0.00 0.00 0.00 0.00 0.00 0.00 0.00 0.00 0.00 0.00 0.01 0.01 0.01 0.01 0.01 0.01 0.00 0.00 0.00 0.00 0.00 0.00 0.01 0.01 0.01 0.01 0.02 0.02 0.02 0.01 0.02 0.03 0.02 0.02 0.02 0.01 0.01 0.01 0.01 0.01 0.00
0.00 0.00 0.00 0.00 0.00 0.00 0.00 0.00 0.00 0.00 0.00 0.00 0.00 0.00 0.00 0.00 0.00 0.00 0.00 0.00 0.00 0.00 0.00 0.00 0.00 0.01 0.00 0.00 0.01 0.01 0.01 0.01 0.03 0.04 0.05 0.04 0.03 0.02 0.01 0.01 0.01 0.01 0.01
0.00 0.00 0.00 0.00 0.00 0.00 0.00 0.00 0.00 0.00 0.00 0.00 0.00 0.00 0.00 0.00 0.00 0.00 0.00 0.00 0.00 0.00 0.00 0.00 0.00 0.00 0.00 0.00 0.00 0.01 0.01 0.02 0.02 0.03 0.05 0.06 0.04 0.02 0.02 0.02 0.01 0.01 0.01
MSLP
1017.83 1018.40 1018.98 1019.53 1020.01 1020.43 1020.77 1021.06 1021.32 1021.56 1021.80 1022.04 1022.26 1022.44 1022.58 1022.64 1022.64 1022.57 1022.46 1022.34 1022.24 1022.16 1022.12 1022.10 1022.09 1022.05 1021.95 1021.77 1021.49 1021.12 1020.67 1020.16 1019.63 1019.08 1018.53 1018.00 1017.47 1016.94 1016.40 1015.83 1015.26 1014.67 1014.10
1017.51 1018.14 1018.76 1019.34 1019.86 1020.29 1020.64 1020.93 1021.18 1021.41 1021.62 1021.83 1022.03 1022.19 1022.31 1022.36 1022.36 1022.29 1022.17 1022.04 1021.90 1021.78 1021.68 1021.60 1021.52 1021.42 1021.27 1021.06 1020.77 1020.41 1019.98 1019.50 1019.00 1018.48 1017.97 1017.45 1016.93 1016.40 1015.86 1015.29 1014.70 1014.11 1013.52
1017.17 1017.87 1018.54 1019.16 1019.71 1020.15 1020.51 1020.79 1021.02 1021.21 1021.39 1021.56 1021.72 1021.85 1021.95 1021.99 1021.98 1021.91 1021.80 1021.65 1021.50 1021.34 1021.20 1021.05 1020.91 1020.74 1020.53 1020.27 1019.96 1019.58 1019.16 1018.71 1018.24 1017.75 1017.27 1016.79 1016.30 1015.79 1015.26 1014.71 1014.13 1013.53 1012.94
1016.84 1017.60 1018.32 1018.98 1019.54 1019.99 1020.34 1020.61 1020.81 1020.97 1021.10 1021.22 1021.34 1021.43 1021.50 1021.53 1021.51 1021.44 1021.33 1021.18 1021.02 1020.84 1020.65 1020.46 1020.25 1020.02 1019.76 1019.45 1019.09 1018.69 1018.27 1017.82 1017.37 1016.92 1016.47 1016.03 1015.58 1015.12 1014.63 1014.11 1013.55 1012.97 1012.38
1016.51 1017.32 1018.08 1018.76 1019.33 1019.78 1020.12 1020.37 1020.54 1020.66 1020.75 1020.83 1020.89 1020.95 1020.98 1020.98 1020.95 1020.88 1020.77 1020.63 1020.46 1020.27 1020.06 1019.83 1019.57 1019.29 1018.97 1018.60 1018.21 1017.78 1017.33 1016.88 1016.44 1016.01 1015.61 1015.21 1014.82 1014.41 1013.98 1013.51 1013.00 1012.45 1011.87
1016.19 1017.03 1017.81 1018.49 1019.06 1019.50 1019.83 1020.06 1020.21 1020.30 1020.36 1020.39 1020.41 1020.42 1020.42 1020.39 1020.34 1020.26 1020.14 1020.00 1019.82 1019.62 1019.40 1019.15 1018.86 1018.54 1018.17 1017.77 1017.33 1016.87 1016.40 1015.94 1015.50 1015.10 1014.73 1014.38 1014.05 1013.72 1013.36 1012.95 1012.50 1011.99 1011.43
1015.90 1016.74 1017.50 1018.17 1018.72 1019.16 1019.48 1019.69 1019.83 1019.91 1019.94 1019.94 1019.93 1019.90 1019.85 1019.79 1019.70 1019.59 1019.46 1019.30 1019.12 1018.92 1018.68 1018.42 1018.12 1017.77 1017.38 1016.95 1016.48 1015.99 1015.50 1015.03 1014.60 1014.21 1013.88 1013.58 1013.31 1013.05 1012.77 1012.44 1012.05 1011.60 1011.07
1015.63 1016.43 1017.16 1017.80 1018.33 1018.75 1019.06 1019.28 1019.42 1019.50 1019.52 1019.51 1019.46 1019.39 1019.30 1019.18 1019.05 1018.90 1018.73 1018.55 1018.36 1018.14 1017.91 1017.65 1017.34 1016.99 1016.59 1016.14 1015.66 1015.16 1014.66 1014.18 1013.76 1013.38 1013.08 1012.83 1012.62 1012.43 1012.23 1011.98 1011.67 1011.27 1010.79
1015.39 1016.14 1016.81 1017.40 1017.90 1018.30 1018.62 1018.84 1018.99 1019.08 1019.11 1019.08 1019.01 1018.90 1018.76 1018.58 1018.39 1018.18 1017.97 1017.75 1017.53 1017.31 1017.08 1016.82 1016.52 1016.19 1015.80 1015.36 1014.88 1014.38 1013.88 1013.40 1012.98 1012.63 1012.35 1012.14 1011.98 1011.86 1011.72 1011.55 1011.31 1010.99 1010.56
1015.19 1015.85 1016.45 1016.99 1017.45 1017.83 1018.14 1018.38 1018.55 1018.65 1018.68 1018.65 1018.56 1018.40 1018.20 1017.96 1017.70 1017.43 1017.16 1016.90 1016.65 1016.42 1016.19 1015.94 1015.67 1015.36 1015.00 1014.58 1014.12 1013.64 1013.15 1012.69 1012.28 1011.94 1011.68 1011.51 1011.39 1011.32 1011.25 1011.14 1010.97 1010.71 1010.34
1015.00 1015.58 1016.10 1016.58 1016.99 1017.35 1017.66 1017.90 1018.08 1018.19 1018.23 1018.18 1018.06 1017.86 1017.60 1017.30 1016.97 1016.63 1016.30 1016.00 1015.72 1015.48 1015.25 1015.03 1014.79 1014.51 1014.19 1013.81 1013.39 1012.94 1012.48 1012.03 1011.64 1011.32 1011.08 1010.92 1010.84 1010.80 1010.77 1010.72 1010.61 1010.42 1010.12
1014.83 1015.32 1015.77 1016.17 1016.54 1016.87 1017.16 1017.40 1017.57 1017.68 1017.70 1017.64 1017.48 1017.24 1016.93 1016.56 1016.16 1015.76 1015.38 1015.04 1014.75 1014.50 1014.29 1014.09 1013.89 1013.66 1013.39 1013.06 1012.68 1012.27 1011.84 1011.42 1011.05 1010.73 1010.50 1010.36 1010.29 1010.28 1010.28 1010.27 1010.22 1010.08 1009.85
1014.66 1015.07 1015.44 1015.79 1016.11 1016.40 1016.65 1016.86 1017.01 1017.10 1017.10 1017.00 1016.80 1016.51 1016.15 1015.73 1015.28 1014.84 1014.42 1014.06 1013.76 1013.52 1013.33 1013.16 1013.01 1012.83 1012.61 1012.34 1012.01 1011.64 1011.24 1010.85 1010.49 1010.18 1009.96 1009.82 1009.75 1009.75 1009.77 1009.79 1009.78 1009.70 1009.53
1014.47 1014.82 1015.13 1015.41 1015.68 1015.91 1016.12 1016.28 1016.40 1016.44 1016.39 1016.25 1016.01 1015.67 1015.26 1014.80 1014.33 1013.86 1013.43 1013.07 1012.78 1012.56 1012.40 1012.28 1012.17 1012.04 1011.87 1011.65 1011.36 1011.03 1010.67 1010.30 1009.95 1009.65 1009.43 1009.28 1009.21 1009.21 1009.24 1009.28 1009.30 1009.27 1009.17
1014.26 1014.56 1014.82 1015.04 1015.25 1015.42 1015.57 1015.67 1015.72 1015.70 1015.59 1015.40 1015.11 1014.74 1014.30 1013.82 1013.33 1012.87 1012.45 1012.11 1011.84 1011.66 1011.54 1011.45 1011.39 1011.30 1011.18 1011.00 1010.75 1010.45 1010.12 1009.76 1009.43 1009.14 1008.91 1008.75 1008.67 1008.66 1008.70 1008.75 1008.80 1008.82 1008.78
1014.03 1014.28 1014.49 1014.67 1014.80 1014.91 1014.98 1015.01 1014.98 1014.89 1014.72 1014.48 1014.14 1013.74 1013.29 1012.81 1012.34 1011.89 1011.51 1011.20 1010.98 1010.83 1010.75 1010.70 1010.67 1010.62 1010.53 1010.38 1010.16 1009.89 1009.57 1009.23 1008.91 1008.61 1008.38 1008.22 1008.13 1008.12 1008.15 1008.22 1008.30 1008.36 1008.38
1013.75 1013.97 1014.14 1014.26 1014.33 1014.37 1014.36 1014.31 1014.21 1014.04 1013.81 1013.51 1013.14 1012.73 1012.27 1011.81 1011.36 1010.96 1010.62 1010.36 1010.18 1010.07 1010.02 1010.01 1010.00 1009.98 1009.90 1009.77 1009.57 1009.31 1009.00 1008.68 1008.36 1008.07 1007.84 1007.67 1007.58 1007.57 1007.61 1007.69 1007.80 1007.90 1007.98
1013.43 1013.62 1013.74 1013.80 1013.82 1013.78 1013.70 1013.57 1013.39 1013.16 1012.87 1012.53 1012.14 1011.72 1011.28 1010.84 1010.43 1010.07 1009.78 1009.56 1009.42 1009.35 1009.33 1009.33 1009.34 1009.32 1009.25 1009.13 1008.93 1008.68 1008.39 1008.08 1007.77 1007.49 1007.26 1007.10 1007.01 1007.00 1007.06 1007.16 1007.29 1007.44 1007.58
1013.06 1013.20 1013.27 1013.28 1013.23 1013.12 1012.97 1012.77 1012.53 1012.24 1011.91 1011.54 1011.14 1010.72 1010.30 1009.90 1009.53 1009.21 1008.96 1008.78 1008.68 1008.63 1008.62 1008.63 1008.63 1008.61 1008.54 1008.41 1008.23 1007.98 1007.70 1007.40 1007.11 1006.84 1006.62 1006.48 1006.40 1006.40 1006.48 1006.60 1006.77 1006.96 1007.15
1012.63 1012.71 1012.72 1012.67 1012.55 1012.38 1012.16 1011.91 1011.61 1011.28 1010.93 1010.54 1010.14 1009.73 1009.34 1008.96 1008.63 1008.35 1008.13 1007.98 1007.89 1007.84 1007.84 1007.84 1007.84 1007.81 1007.73 1007.60 1007.41 1007.18 1006.91 1006.63 1006.36 1006.11 1005.92 1005.79 1005.73 1005.75 1005.84 1006.00 1006.20 1006.43 1006.67
1012.13 1012.14 1012.08 1011.96 1011.78 1011.55 1011.28 1010.98 1010.65 1010.29 1009.91 1009.52 1009.13 1008.74 1008.36 1008.01 1007.71 1007.45 1007.25 1007.11 1007.02 1006.97 1006.95 1006.94 1006.93 1006.88 1006.80 1006.67 1006.49 1006.28 1006.03 1005.77 1005.52 1005.31 1005.14 1005.03 1004.99 1005.03 1005.14 1005.32 1005.55 1005.81 1006.10
1011.56 1011.49 1011.35 1011.16 1010.92 1010.64 1010.32 1009.98 1009.63 1009.25 1008.87 1008.48 1008.09 1007.71 1007.35 1007.02 1006.73 1006.48 1006.29 1006.14 1006.05 1005.99 1005.96 1005.93 1005.90 1005.85 1005.77 1005.64 1005.48 1005.29 1005.07 1004.84 1004.62 1004.43 1004.29 1004.20 1004.19 1004.24 1004.37 1004.56 1004.81 1005.10 1005.42
1010.92 1010.76 1010.54 1010.28 1009.98 1009.66 1009.31 1008.94 1008.56 1008.18 1007.79 1007.40 1007.02 1006.65 1006.30 1005.98 1005.70 1005.46 1005.26 1005.11 1005.00 1004.92 1004.87 1004.84 1004.80 1004.75 1004.67 1004.56 1004.42 1004.25 1004.06 1003.87 1003.68 1003.52 1003.40 1003.33 1003.32 1003.39 1003.52 1003.71 1003.97 1004.27 1004.61
1010.23 1009.98 1009.69 1009.37 1009.02 1008.65 1008.27 1007.89 1007.49 1007.10 1006.71 1006.33 1005.95 1005.59 1005.24 1004.92 1004.64 1004.39 1004.19 1004.02 1003.90 1003.82 1003.76 1003.71 1003.67 1003.62 1003.56 1003.47 1003.35 1003.22 1003.06 1002.90 1002.74 1002.60 1002.49 1002.43 1002.43 1002.48 1002.60 1002.79 1003.04 1003.34 1003.68
1009.51 1009.19 1008.84 1008.46 1008.07 1007.67 1007.27 1006.86 1006.45 1006.06 1005.66 1005.28 1004.90 1004.54 1004.20 1003.88 1003.59 1003.34 1003.13 1002.95 1002.82 1002.73 1002.66 1002.61 1002.57 1002.53 1002.48 1002.41 1002.32 1002.21 1002.08 1001.94 1001.80 1001.68 1001.57 1001.51 1001.50 1001.54 1001.64 1001.81 1002.03 1002.32 1002.65
1008.79 1008.42 1008.02 1007.60 1007.18 1006.75 1006.32 1005.90 1005.48 1005.07 1004.67 1004.28 1003.91 1003.54 1003.20 1002.88 1002.59 1002.33 1002.11 1001.94 1001.80 1001.70 1001.63 1001.58 1001.54 1001.51 1001.47 1001.41 1001.34 1001.24 1001.13 1001.00 1000.87 1000.75 1000.64 1000.56 1000.53 1000.54 1000.62 1000.76 1000.95 1001.21 1001.52
Thickness
5573 5567 5561 5555 5549 5543 5537 5531 5526 5521 5515 5510 5505 5500 5495 5490 5486 5481 5476 5471 5466 5462 5457 5453 5448 5444 5439 5434 5429 5423 5418 5412 5416 5424 5415 5411 5406 5402 5401 5398 5396 5395 5394
5566 5559 5553 5546 5540 5534 5528 5523 5517 5512 5506 5501 5495 5490 5485 5481 5476 5471 5466 5462 5457 5452 5447 5442 5438 5434 5429 5423 5418 5412 5407 5401 5398 5403 5404 5396 5390 5385 5382 5379 5377 5375 5374
5558 5551 5544 5537 5531 5525 5519 5514 5508 5502 5497 5491 5486 5480 5476 5471 5466 5462 5457 5452 5447 5442 5438 5432 5428 5423 5418 5412 5406 5401 5395 5390 5385 5383 5386 5381 5375 5368 5364 5361 5359 5357 5355
5550 5543 5536 5529 5523 5517 5510 5504 5498 5493 5487 5481 5476 5471 5466 5461 5456 5452 5447 5443 5438 5433 5428 5422 5417 5411 5406 5400 5395 5389 5383 5377 5371 5367 5367 5364 5358 5352 5345 5342 5343 5341 5339
5543 5535 5528 5521 5514 5507 5501 5495 5489 5483 5477 5472 5466 5461 5455 5450 5446 5442 5438 5434 5429 5425 5419 5413 5407 5401 5396 5390 5385 5378 5370 5364 5357 5352 5349 5346 5342 5334 5328 5325 5325 5327 5327
5535 5527 5520 5512 5505 5498 5491 5485 5479 5473 5467 5461 5456 5451 5445 5441 5438 5435 5431 5427 5421 5415 5409 5403 5396 5390 5383 5378 5372 5365 5356 5348 5340 5335 5333 5329 5325 5318 5313 5311 5310 5311 5316
5526 5518 5511 5503 5495 5488 5482 5475 5469 5463 5457 5451 5446 5440 5435 5431 5428 5425 5421 5416 5411 5404 5397 5390 5385 5378 5370 5362 5356 5350 5341 5332 5325 5320 5317 5314 5309 5305 5301 5300 5300 5301 5305
5517 5508 5501 5493 5486 5479 5472 5465 5459 5453 5447 5442 5436 5431 5426 5421 5418 5414 5410 5405 5399 5392 5384 5376 5369 5363 5354 5346 5341 5336 5329 5321 5312 5307 5303 5301 5298 5295 5292 5291 5292 5294 5297
5506 5498 5491 5483 5476 5469 5462 5456 5450 5444 5438 5432 5427 5421 5416 5411 5406 5402 5397 5392 5387 5381 5373 5364 5354 5347 5341 5333 5327 5322 5318 5312 5305 5300 5297 5294 5292 5289 5287 5285 5284 5284 5289
5496 5489 5481 5473 5466 5459 5452 5446 5440 5434 5429 5423 5418 5411 5405 5400 5395 5389 5383 5378 5374 5369 5362 5352 5342 5333 5327 5320 5313 5307 5304 5301 5296 5293 5289 5285 5282 5279 5278 5275 5273 5274 5278
5485 5477 5470 5463 5456 5449 5442 5436 5430 5424 5418 5412 5407 5402 5395 5389 5383 5377 5370 5362 5356 5352 5347 5339 5329 5321 5314 5308 5302 5297 5293 5291 5288 5284 5279 5276 5273 5271 5269 5268 5266 5266 5268
5474 5466 5459 5452 5445 5439 5432 5425 5418 5411 5405 5400 5396 5392 5386 5378 5370 5364 5357 5350 5342 5335 5331 5324 5316 5310 5304 5299 5293 5289 5285 5282 5277 5272 5269 5268 5266 5265 5264 5263 5262 5262 5264
5461 5454 5447 5441 5434 5427 5420 5413 5406 5399 5392 5388 5383 5380 5377 5369 5359 5351 5344 5337 5329 5320 5315 5310 5305 5299 5293 5287 5282 5279 5276 5270 5266 5263 5262 5262 5260 5260 5259 5258 5259 5260 5261
5450 5443 5436 5429 5423 5416 5409 5402 5395 5388 5381 5375 5370 5366 5363 5358 5347 5337 5330 5322 5315 5307 5301 5297 5293 5287 5281 5276 5272 5267 5262 5260 5258 5258 5257 5256 5255 5254 5253 5253 5253 5254 5256
5438 5431 5425 5419 5412 5406 5399 5392 5385 5379 5368 5363 5358 5351 5346 5344 5337 5326 5318 5311 5302 5295 5290 5286 5280 5274 5269 5265 5261 5258 5255 5253 5252 5252 5251 5251 5251 5250 5249 5248 5248 5249 5249
5427 5420 5414 5407 5401 5394 5388 5384 5378 5370 5364 5355 5347 5339 5333 5327 5322 5314 5305 5298 5291 5284 5278 5272 5267 5261 5257 5254 5252 5251 5249 5247 5247 5247 5247 5246 5246 5245 5244 5243 5243 5243 5243
5416 5410 5403 5396 5390 5383 5377 5371 5368 5365 5355 5345 5335 5326 5318 5312 5305 5298 5291 5285 5279 5271 5264 5258 5253 5249 5247 5245 5244 5243 5242 5242 5242 5242 5242 5241 5241 5241 5240 5239 5239 5239 5239
5406 5400 5393 5386 5378 5371 5364 5357 5350 5346 5343 5338 5327 5315 5305 5298 5291 5284 5277 5271 5266 5258 5250 5246 5243 5241 5239 5238 5238 5237 5238 5238 5238 5238 5238 5238 5237 5236 5236 5235 5235 5235 5235
5394 5388 5381 5374 5367 5359 5352 5344 5337 5330 5324 5321 5315 5306 5293 5285 5279 5271 5263 5256 5251 5247 5242 5238 5236 5234 5233 5233 5233 5233 5233 5233 5234 5234 5234 5234 5233 5232 5232 5232 5231 5233 5233
5383 5378 5372 5364 5356 5348 5340 5331 5324 5317 5310 5304 5297 5289 5281 5273 5267 5262 5254 5246 5241 5237 5234 5231 5230 5229 5228 5228 5228 5228 5229 5230 5230 5231 5231 5231 5231 5229 5229 5228 5228 5228 5228
5372 5365 5360 5352 5343 5335 5327 5319 5311 5303 5296 5289 5283 5275 5268 5261 5257 5251 5244 5238 5233 5229 5226 5225 5224 5224 5223 5223 5223 5224 5225 5227 5227 5228 5229 5228 5228 5227 5226 5226 5226 5225 5225
5360 5353 5346 5338 5331 5323 5315 5307 5299 5290 5283 5276 5272 5266 5259 5252 5246 5241 5236 5231 5227 5223 5220 5219 5220 5220 5219 5219 5220 5221 5222 5224 5225 5225 5226 5225 5225 5224 5224 5223 5223 5223 5222
5348 5341 5334 5327 5319 5312 5305 5296 5286 5278 5271 5265 5259 5255 5250 5244 5239 5234 5230 5226 5222 5219 5217 5216 5216 5217 5217 5217 5217 5218 5219 5221 5222 5222 5223 5223 5223 5222 5222 5222 5221 5220 5220
5336 5329 5322 5315 5307 5299 5291 5283 5275 5267 5260 5255 5250 5246 5242 5237 5233 5229 5225 5222 5219 5217 5216 5214 5214 5215 5215 5215 5216 5217 5218 5218 5219 5220 5221 5221 5221 5221 5221 5221 5220 5219 5219
5324 5317 5309 5301 5293 5285 5278 5271 5264 5257 5251 5246 5242 5238 5234 5231 5227 5225 5222 5219 5217 5216 5215 5214 5214 5214 5215 5215 5215 5216 5217 5218 5219 5220 5221 5221 5222 5221 5221 5220 5219 5219 5218
5312 5304 5296 5287 5279 5272 5265 5259 5254 5248 5243 5239 5235 5231 5227 5224 5222 5220 5218 5217 5216 5215 5215 5215 5214 5214 5214 5215 5215 5216 5217 5219 5220 5221 5221 5222 5223 5222 5221 5221 5219 5219 5218